Weather in Krasnyy Manych

Russia / Republic of Kalmykia     46°32′25″N   42°10′56″E
temp.,
°C
wind,
m/s
gust,
m/s
humid.,
%
clouds,
%
prec.,
mm/h
press.,
hPa
HPBL,
m
13 april, tue
tue1300:00+11sw2393100 0.0 102289
03:00+10sw129681 0.0 102243
06:00+10s239480 0.0 1022166
09:00+11s228768 0.0 1023316
12:00+14se127061 0.0 1022839
15:00+17s236179 0.0 1021804
18:00+12w5887100 0.0 1021247
21:00+11wnw3688100 0.0 1021241
14 april, wed
wed1400:00+10wnw3393100 0.0 102070
03:00+11n2292100 0.4 101849
06:00+11nne1292100 0.0 101861
09:00+14nnw2256100 0.0 1017580
12:00+17wnw2241100 0.0 1016973
15:00+18se0139100 0.0 10151453
18:00+15wsw5767100 0.0 1015227
21:00+13w4979100 0.0 1016273
15 april, thu
thu1500:00+11wsw4787100 0.0 1016171
03:00+10w4789100 0.0 1016173
06:00+8w368842 0.0 1016144
09:00+14w456523 0.0 1016564
12:00+18w45462 0.0 10161277
15:00+19w45390 0.0 10151681
18:00+17wnw335635 0.0 101552
21:00+13wsw3467100 0.0 101653
16 april, fri
fri1600:00+11wsw369021 0.1 1016106
03:00+10w349280 0.1 101679
06:00+10nw2486100 0.0 1016129
09:00+13nw227096 0.0 1017333
12:00+18se115462 0.0 1016922
15:00+18se2255100 0.4 10151069
18:00+14w6780100 0.6 1016326
21:00+11wnw5990100 2.7 1018496
17 april, sat
sat1700:00+10w369273 1.9 1019373
03:00+9wnw4788100 1.9 1019494
06:00+8w4790100 0.1 1020385
09:00+10wnw357599 0.9 1021550
12:00+14w455796 0.2 10201535
15:00+14w555199 0.5 10211813
18:00+14s235882 0.0 102192
21:00+11w356440 0.0 1021109